Change the Weather History Date:

Sunday, October 30, 2011

  Actual Average Record
Temperature  
Mean Temperature 47 °F -  
Max Temperature 55 °F 72 °F 75 °F (1999)
Min Temperature 39 °F 35 °F 32 °F (2008)
Degree Days  
Heating Degree Days 18    
Moisture  
Dew Point 39 °F    
Average Humidity 74    
Maximum Humidity 93    
Minimum Humidity 45    
Precipitation  
Precipitation 0.29 in - - ()
Sea Level Pressure  
Sea Level Pressure 30.04 in    
Wind  
Wind Speed 14 mph (SSW)    
Max Wind Speed 26 mph    
Max Gust Speed 45 mph    
Visibility 8 miles    
Events Rain    
Averages and records for this station are not official NWS values.
T = Trace of Precipitation, MM = Missing Value Source: NWS Daily Summary

Daily Weather History Graph

Daily Weather History Graph

Search for Another Location

Airport or City:

Trip Planner

Search our weather history database for the weather conditions in past years. The results will help you decide how hot, cold, wet, or windy it might be!

Date:

Astronomy

Oct. 30, 2011 Rise Set
Actual Time 7:22 AM CDT 5:55 PM CDT
Civil Twilight 6:54 AM CDT 6:23 PM CDT
Nautical Twilight 6:22 AM CDT 6:55 PM CDT
Astronomical Twilight 5:50 AM CDT 7:27 PM CDT
Moon 11:42 AM CDT (10/30) 9:23 PM CDT (10/30)
Length of Visible Light 11h 28m
Length of Day
10h 32m
Waxing Crescent, 20% of the Moon is Illuminated
Oct 30
Waxing Crescent
Nov 2
First Quarter
Nov 10
Full
Nov 18
Last Quarter
Nov 25
New

Hourly Weather History & Observations

Time (CDT) Temp. Windchill Dew Point Humidity Pressure Visibility Wind Dir Wind Speed Gust Speed Precip Events Conditions
12:56 AM 41.9 °F 35.4 °F 26.1 °F 53% 30.12 in 10.0 mi SE 11.5 mph - N/A   Clear
1:56 AM 39.9 °F 33.9 °F 27.1 °F 60% 30.13 in 10.0 mi SSE 9.2 mph - N/A   Clear
2:56 AM 39.9 °F 32.5 °F 27.1 °F 60% 30.14 in 10.0 mi SSE 12.7 mph - N/A   Clear
6:56 AM 41.9 °F 34.6 °F 29.1 °F 61% 30.11 in 10.0 mi SSE 13.8 mph - N/A   Clear
7:56 AM 43.0 °F 35.7 °F 31.1 °F 63% 30.10 in 10.0 mi South 15.0 mph - N/A   Clear
8:56 AM 46.9 °F - 32.9 °F 58% 30.11 in 10.0 mi South 16.1 mph - N/A   Clear
11:56 AM 55.9 °F - 34.9 °F 45% 30.05 in 10.0 mi SSW 21.9 mph - N/A   Mostly Cloudy
12:56 PM 54.0 °F - 34.9 °F 49% 30.03 in 10.0 mi SSW 16.1 mph - 0.00 in   Mostly Cloudy
1:56 PM 55.9 °F - 36.9 °F 49% 30.00 in 10.0 mi South 26.5 mph - 0.00 in   Scattered Clouds
2:56 PM 52.9 °F - 39.9 °F 61% 30.00 in 10.0 mi SW 26.5 mph 44.9 mph 0.00 in Rain Light Rain
4:56 PM 48.9 °F - 45.0 °F 86% 30.01 in 10.0 mi South 13.8 mph - 0.00 in   Overcast
5:56 PM 48.9 °F - 43.9 °F 83% 30.01 in 10.0 mi South 15.0 mph - 0.01 in Rain Light Rain
6:44 PM 48.2 °F - 44.6 °F 87% 30.00 in 2.5 mi SSW 13.8 mph - 0.03 in Rain Rain
6:56 PM 47.8 °F - 43.9 °F 86% 30.03 in 4.0 mi South 12.7 mph - 0.05 in Rain Light Rain
7:56 PM 48.9 °F - 43.0 °F 80% 30.01 in 10.0 mi South 11.5 mph - 0.02 in   Mostly Cloudy
8:56 PM 48.9 °F - 43.0 °F 80% 30.02 in 7.0 mi SSW 11.5 mph - 0.02 in Rain Light Rain
9:36 PM 48.2 °F - 44.6 °F 87% 30.03 in 3.0 mi West 12.7 mph - 0.04 in Rain Rain
9:39 PM 48.2 °F - 44.6 °F 87% 30.03 in 2.5 mi WSW 13.8 mph - 0.05 in Rain Rain
9:43 PM 48.2 °F - 44.6 °F 87% 30.03 in 1.8 mi WSW 13.8 mph - 0.07 in Rain Rain
9:56 PM 46.9 °F - 45.0 °F 93% 30.04 in 2.0 mi WSW 10.4 mph - 0.13 in Rain Rain
10:05 PM 46.4 °F 41.9 °F 44.6 °F 93% 30.03 in 3.0 mi SW 9.2 mph - 0.02 in Rain Light Rain
10:40 PM 46.4 °F 41.5 °F 44.6 °F 93% 30.01 in 10.0 mi SSW 10.4 mph - 0.06 in   Mostly Cloudy
10:56 PM 46.9 °F - 43.9 °F 89% 30.01 in 10.0 mi SSE 8.1 mph - 0.06 in Rain Light Rain
11:56 PM 43.9 °F 41.3 °F 41.9 °F 93% 30.01 in 10.0 mi SW 4.6 mph - 0.00 in   Scattered Clouds